Weather History for Tekamah, NE

Change the Weather History Date:

Wednesday, January 2, 2013

  Actual Average Record
Temperature  
Mean Temperature 18 °F -  
Max Temperature 34 °F 30 °F 66 °F (1964)
Min Temperature 1 °F 11 °F -11 °F (2014)
Degree Days  
Heating Degree Days 48    
Moisture  
Dew Point 18 °F    
Average Humidity 81    
Maximum Humidity 88    
Minimum Humidity 75    
Precipitation  
Precipitation 0.00 in - - ()
Sea Level Pressure  
Sea Level Pressure 30.11 in    
Wind  
Wind Speed 7 mph (WSW)    
Max Wind Speed 13 mph    
Max Gust Speed -    
Visibility 7 miles    
Events Snow    
Averages and records for this station are not official NWS values.
T = Trace of Precipitation, MM = Missing Value Source: NWS Daily Summary

Daily Weather History Graph

Daily Weather History Graph

Search for Another Location

Airport:

Trip Planner

Search our weather history database for the weather conditions in past years. The results will help you decide how hot, cold, wet, or windy it might be!

Date:

Astronomy

Jan. 02, 2013 Rise Set
Actual Time 7:52 AM CST 5:05 PM CST
Civil Twilight 7:20 AM CST 5:37 PM CST
Nautical Twilight 6:45 AM CST 6:12 PM CST
Astronomical Twilight 6:12 AM CST 6:46 PM CST
Moon 10:44 PM CST (1/2) 10:29 AM CST (1/2)
Length of Visible Light 10h 16m
Length of Day
9h 13m
Waning Gibbous, 75% of the Moon is Illuminated
Jan 2
Waning Gibbous
Jan 4
Last Quarter
Jan 11
New
Jan 18
First Quarter
Jan 26
Full

Hourly Weather History & Observations

Time (CST) Temp. Windchill Dew Point Humidity Pressure Visibility Wind Dir Wind Speed Gust Speed Precip Events Conditions
12:54 AM 1.9 °F -9.2 °F -0.9 °F 88% 30.14 in 3.0 mi SSE 5.8 mph - N/A   Clear
1:54 AM 3.0 °F -12.5 °F -0.0 °F 87% 30.12 in 3.0 mi SSE 10.4 mph - N/A   Clear
2:54 AM 3.0 °F -10.5 °F -0.9 °F 84% 30.12 in 4.0 mi SE 8.1 mph - N/A   Clear
3:54 AM 3.9 °F -9.4 °F 1.0 °F 88% 30.10 in 3.0 mi SSE 8.1 mph - N/A   Clear
4:54 AM 3.9 °F -6.9 °F -0.0 °F 84% 30.09 in 4.0 mi SSE 5.8 mph - N/A   Clear
5:54 AM 3.9 °F -6.9 °F -0.0 °F 84% 30.10 in 4.0 mi SSE 5.8 mph - N/A   Clear
6:54 AM 8.1 °F -2.0 °F 3.0 °F 80% 30.10 in 4.0 mi South 5.8 mph - N/A   Haze
7:54 AM 10.9 °F 0.2 °F 7.0 °F 84% 30.11 in 4.0 mi SSE 6.9 mph - N/A   Mostly Cloudy
8:54 AM 14.0 °F 6.5 °F 10.0 °F 84% 30.11 in 4.0 mi South 4.6 mph - N/A   Overcast
9:18 AM 17.6 °F 12.3 °F 12.2 °F 79% 30.05 in 4.0 mi South 3.5 mph - N/A   Haze
9:40 AM 17.6 °F - 14.0 °F 86% 30.05 in 4.0 mi Calm Calm - N/A   Overcast
9:54 AM 19.0 °F 13.9 °F 14.0 °F 81% 30.11 in 4.0 mi SSE 3.5 mph - N/A   Haze
10:22 AM 21.2 °F 13.6 °F 17.6 °F 86% 30.07 in 4.0 mi South 5.8 mph - N/A   Overcast
10:54 AM 25.0 °F - 21.0 °F 85% 30.12 in 6.0 mi Calm Calm - N/A   Overcast
11:18 AM 28.4 °F 22.2 °F 23.0 °F 80% 30.06 in 8.0 mi West 5.8 mph - N/A   Overcast
11:28 AM 28.4 °F 21.2 °F 23.0 °F 80% 30.06 in 8.0 mi West 6.9 mph - N/A   Overcast
11:41 AM 28.4 °F 24.6 °F 24.8 °F 86% 30.06 in 8.0 mi WSW 3.5 mph - N/A   Overcast
11:54 AM 30.0 °F 24.1 °F 24.1 °F 79% 30.10 in 8.0 mi West 5.8 mph - N/A   Overcast
12:54 PM 34.0 °F 25.0 °F 27.0 °F 75% 30.08 in 8.0 mi WNW 12.7 mph - N/A   Overcast
1:32 PM 33.8 °F 25.8 °F 28.4 °F 81% 30.04 in 2.5 mi WNW 10.4 mph - 0.00 in Snow Light Snow
1:54 PM 34.0 °F 26.0 °F 28.0 °F 79% 30.08 in 4.0 mi WNW 10.4 mph - 0.00 in   Haze
2:36 PM 33.8 °F 25.3 °F 26.6 °F 75% 30.05 in 9.0 mi WNW 11.5 mph - N/A   Overcast
2:54 PM 34.0 °F 25.5 °F 27.0 °F 75% 30.10 in 9.0 mi WNW 11.5 mph - N/A   Overcast
3:17 PM 33.8 °F 25.8 °F 26.6 °F 75% 30.07 in 10.0 mi WNW 10.4 mph - N/A   Overcast
3:34 PM 33.8 °F 25.8 °F 26.6 °F 75% 30.07 in 10.0 mi WNW 10.4 mph - N/A   Overcast
3:54 PM 34.0 °F 25.5 °F 27.0 °F 75% 30.12 in 10.0 mi WNW 11.5 mph - N/A   Overcast
4:54 PM 34.0 °F 26.6 °F 27.0 °F 75% 30.14 in 10.0 mi WNW 9.2 mph - N/A   Overcast
5:54 PM 33.1 °F 24.9 °F 27.0 °F 78% 30.16 in 10.0 mi West 10.4 mph - N/A   Overcast
6:54 PM 32.0 °F 24.2 °F 26.1 °F 79% 30.17 in 10.0 mi WNW 9.2 mph - N/A   Overcast
7:54 PM 28.9 °F - 25.0 °F 85% 30.19 in 10.0 mi Calm Calm - N/A   Overcast
8:54 PM 30.9 °F 22.2 °F 25.0 °F 79% 30.19 in 10.0 mi WNW 10.4 mph - N/A   Overcast
9:54 PM 30.9 °F 21.2 °F 25.0 °F 79% 30.22 in 10.0 mi WNW 12.7 mph - N/A   Overcast
10:54 PM 30.9 °F 21.7 °F 25.0 °F 79% 30.23 in 10.0 mi WNW 11.5 mph - N/A   Overcast
11:54 PM 30.9 °F 22.8 °F 25.0 °F 79% 30.25 in 10.0 mi WNW 9.2 mph - N/A   Overcast